| time (UTC) | temp C | wind direction | speed KPH | gust KPH | rain 1hr cm | rain 24hr cm | rain mn cm | humidity % | barometer mb |
| 20260502223556 | 21 | 302 | 20.9 | 29.0 | 0.00 | 0.00 | 0.00 | 38 | 1016.5 |
| 20260502223058 | 21 | 304 | 11.3 | 32.2 | 0.00 | 0.00 | 0.00 | 37 | 1016.6 |
| 20260502222556 | 21 | 283 | 9.7 | 32.2 | 0.00 | 0.00 | 0.00 | 38 | 1016.6 |
| 20260502222100 | 21 | 317 | 11.3 | 25.7 | 0.00 | 0.00 | 0.00 | 38 | 1016.6 |
| 20260502221554 | 21 | 311 | 14.5 | 32.2 | 0.00 | 0.00 | 0.00 | 37 | 1016.6 |
| 20260502221058 | 21 | 328 | 19.3 | 35.4 | 0.00 | 0.00 | 0.00 | 38 | 1016.6 |
| 20260502220556 | 21 | 326 | 24.1 | 35.4 | 0.00 | 0.00 | 0.00 | 37 | 1016.6 |
| 20260502220058 | 21 | 303 | 19.3 | 29.0 | 0.00 | 0.00 | 0.00 | 38 | 1016.5 |
| 20260502215555 | 21 | 303 | 17.7 | 37.0 | 0.00 | 0.00 | 0.00 | 36 | 1016.6 |
| 20260502215058 | 21 | 294 | 25.7 | 37.0 | 0.00 | 0.00 | 0.00 | 37 | 1016.5 |
| 20260502214557 | 21 | 302 | 20.9 | 32.2 | 0.00 | 0.00 | 0.00 | 35 | 1016.4 |
| 20260502214056 | 21 | 302 | 19.3 | 32.2 | 0.00 | 0.00 | 0.00 | 36 | 1016.5 |
| 20260502213556 | 21 | 304 | 19.3 | 33.8 | 0.00 | 0.00 | 0.00 | 38 | 1016.5 |
| 20260502213054 | 21 | 283 | 19.3 | 33.8 | 0.00 | 0.00 | 0.00 | 37 | 1016.6 |
| 20260502212556 | 21 | 330 | 6.4 | 22.5 | 0.00 | 0.00 | 0.00 | 37 | 1016.7 |
| 20260502212056 | 21 | 0 | 8.0 | 29.0 | 0.00 | 0.00 | 0.00 | 36 | 1016.8 |
| 20260502211556 | 21 | 305 | 16.1 | 29.0 | 0.00 | 0.00 | 0.00 | 37 | 1016.8 |
| 20260502211057 | 21 | 309 | 9.7 | 29.0 | 0.00 | 0.00 | 0.00 | 38 | 1016.8 |
| 20260502210559 | 21 | 323 | 16.1 | 41.8 | 0.00 | 0.00 | 0.00 | 37 | 1016.9 |
| 20260502210056 | 21 | 301 | 22.5 | 41.8 | 0.00 | 0.00 | 0.00 | 36 | 1017.0 |
| 20260502205556 | 20 | 305 | 16.1 | 41.8 | 0.00 | 0.00 | 0.00 | 36 | 1017.0 |
| 20260502205056 | 20 | 315 | 9.7 | 22.5 | 0.00 | 0.00 | 0.00 | 37 | 1017.1 |
| 20260502204610 | 20 | 287 | 8.0 | 25.7 | 0.00 | 0.00 | 0.00 | 36 | 1017.1 |
| 20260502204056 | 20 | 288 | 12.9 | 35.4 | 0.00 | 0.00 | 0.00 | 37 | 1017.2 |
| 20260502203553 | 21 | 301 | 24.1 | 35.4 | 0.00 | 0.00 | 0.00 | 34 | 1017.3 |
| 20260502203059 | 21 | 288 | 12.9 | 30.6 | 0.00 | 0.00 | 0.00 | 36 | 1017.3 |
| 20260502202556 | 20 | 294 | 20.9 | 35.4 | 0.00 | 0.00 | 0.00 | 36 | 1017.4 |
| 20260502202056 | 21 | 300 | 22.5 | 35.4 | 0.00 | 0.00 | 0.00 | 36 | 1017.5 |
| 20260502201558 | 21 | 302 | 11.3 | 40.2 | 0.00 | 0.00 | 0.00 | 35 | 1017.4 |
| 20260502201056 | 21 | 300 | 16.1 | 40.2 | 0.00 | 0.00 | 0.00 | 35 | 1017.5 |
| 20260502200556 | 21 | 321 | 22.5 | 40.2 | 0.00 | 0.00 | 0.00 | 37 | 1017.5 |
| 20260502200058 | 21 | 296 | 19.3 | 33.8 | 0.00 | 0.00 | 0.00 | 35 | 1017.5 |
| 20260502195556 | 21 | 0 | 9.7 | 38.6 | 0.00 | 0.00 | 0.00 | 38 | 1017.6 |
| 20260502195056 | 21 | 311 | 20.9 | 38.6 | 0.00 | 0.00 | 0.00 | 37 | 1017.6 |
| 20260502194555 | 21 | 311 | 19.3 | 38.6 | 0.00 | 0.00 | 0.00 | 33 | 1017.6 |
| 20260502194056 | 21 | 318 | 12.9 | 33.8 | 0.00 | 0.00 | 0.00 | 34 | 1017.7 |
| 20260502193556 | 20 | 331 | 17.7 | 33.8 | 0.00 | 0.00 | 0.00 | 35 | 1017.8 |
| 20260502193056 | 20 | 305 | 20.9 | 32.2 | 0.00 | 0.00 | 0.00 | 35 | 1017.9 |
| 20260502192555 | 21 | 310 | 14.5 | 35.4 | 0.00 | 0.00 | 0.00 | 35 | 1017.7 |
| 20260502192053 | 21 | 313 | 25.7 | 35.4 | 0.00 | 0.00 | 0.00 | 36 | 1017.9 |
| 20260502191602 | 20 | 336 | 12.9 | 27.4 | 0.00 | 0.00 | 0.00 | 37 | 1017.7 |
| 20260502191057 | 20 | 253 | 8.0 | 32.2 | 0.00 | 0.00 | 0.00 | 35 | 1017.8 |
| 20260502190555 | 21 | 347 | 14.5 | 32.2 | 0.00 | 0.00 | 0.00 | 36 | 1017.8 |
| 20260502190056 | 20 | 337 | 22.5 | 32.2 | 0.00 | 0.00 | 0.00 | 36 | 1017.9 |
| 20260502185555 | 20 | 293 | 19.3 | 27.4 | 0.00 | 0.00 | 0.00 | 35 | 1018.1 |
| 20260502185055 | 20 | 276 | 14.5 | 32.2 | 0.00 | 0.00 | 0.00 | 36 | 1018.1 |
| 20260502184553 | 20 | 0 | 8.0 | 32.2 | 0.00 | 0.00 | 0.00 | 33 | 1018.1 |
| 20260502184056 | 20 | 297 | 24.1 | 32.2 | 0.00 | 0.00 | 0.00 | 35 | 1018.1 |
| 20260502183556 | 20 | 326 | 6.4 | 33.8 | 0.00 | 0.00 | 0.00 | 34 | 1018.1 |
| 20260502183056 | 20 | 343 | 20.9 | 33.8 | 0.00 | 0.00 | 0.00 | 34 | 1018.3 |
| 20260502182556 | 20 | 322 | 19.3 | 33.8 | 0.00 | 0.00 | 0.00 | 36 | 1018.2 |
| 20260502182056 | 20 | 308 | 9.7 | 17.7 | 0.00 | 0.00 | 0.00 | 37 | 1018.3 |
| 20260502181555 | 20 | 46 | 0.0 | 19.3 | 0.00 | 0.00 | 0.00 | 40 | 1018.2 |
| 20260502181057 | 20 | 0 | 1.6 | 29.0 | 0.00 | 0.00 | 0.00 | 37 | 1018.3 |
| 20260502180556 | 20 | 338 | 14.5 | 30.6 | 0.00 | 0.00 | 0.00 | 38 | 1018.3 |
| 20260502164055 | 18 | 300 | 0.0 | 22.5 | 0.00 | 0.00 | 0.00 | 41 | 1019.0 |
| 20260502163555 | 18 | 0 | 6.4 | 22.5 | 0.00 | 0.00 | 0.00 | 37 | 1019.2 |
| 20260502163102 | 18 | 326 | 12.9 | 19.3 | 0.00 | 0.00 | 0.00 | 38 | 1019.1 |
| 20260502162556 | 18 | 295 | 8.0 | 20.9 | 0.00 | 0.00 | 0.00 | 41 | 1019.2 |
| 20260502162052 | 18 | 340 | 9.7 | 20.9 | 0.00 | 0.00 | 0.00 | 38 | 1019.1 |
| 20260502161601 | 18 | 331 | 8.0 | 17.7 | 0.00 | 0.00 | 0.00 | 42 | 1019.2 |
| 20260502161052 | 18 | 0 | 0.0 | 14.5 | 0.00 | 0.00 | 0.00 | 46 | 1019.1 |
| 20260502160556 | 18 | 0 | 1.6 | 14.5 | 0.00 | 0.00 | 0.00 | 45 | 1019.2 |
| 20260502152056 | 17 | 0 | 0.0 | 11.3 | 0.00 | 0.00 | 0.00 | 53 | 1019.3 |
| 20260502151557 | 16 | 0 | 0.0 | 11.3 | 0.00 | 0.00 | 0.00 | 52 | 1019.2 |
| 20260502151055 | 16 | 311 | 0.0 | 11.3 | 0.00 | 0.00 | 0.00 | 53 | 1019.2 |
| 20260502150555 | 16 | 0 | 4.8 | 11.3 | 0.00 | 0.00 | 0.00 | 52 | 1019.3 |
| 20260502150110 | 16 | 0 | 4.8 | 9.7 | 0.00 | 0.00 | 0.00 | 54 | 1019.1 |
| 20260502130552 | 12 | 333 | 8.0 | 11.3 | 0.00 | 0.00 | 0.00 | 71 | 1018.2 |
| 20260502130109 | 12 | 339 | 8.0 | 11.3 | 0.00 | 0.00 | 0.00 | 76 | 1018.1 |
| 20260502123552 | 11 | 334 | 4.8 | 8.0 | 0.00 | 0.00 | 0.00 | 80 | 1017.9 |
| 20260502123101 | 10 | 328 | 4.8 | 8.0 | 0.00 | 0.00 | 0.00 | 80 | 1017.8 |
| 20260502122553 | 10 | 0 | 0.0 | 0.0 | 0.00 | 0.00 | 0.00 | 81 | 1017.8 |
| 20260502122052 | 10 | 0 | 0.0 | 0.0 | 0.00 | 0.00 | 0.00 | 81 | 1017.7 |
| 20260502121555 | 10 | 0 | 0.0 | 0.0 | 0.00 | 0.00 | 0.00 | 79 | 1017.5 |
| 20260502121053 | 10 | 0 | 0.0 | 0.0 | 0.00 | 0.00 | 0.00 | 79 | 1017.4 |
| 20260502120555 | 10 | 0 | 0.0 | 0.0 | 0.00 | 0.00 | 0.00 | 79 | 1017.3 |
| 20260502115555 | 9 | 0 | 0.0 | 0.0 | 0.00 | 0.00 | 0.00 | 79 | 1017.3 |
| 20260502115059 | 9 | 0 | 0.0 | 0.0 | 0.00 | 0.00 | 0.00 | 79 | 1017.1 |
| 20260502114558 | 9 | 0 | 0.0 | 0.0 | 0.00 | 0.00 | 0.00 | 79 | 1017.3 |
| 20260502114056 | 9 | 0 | 0.0 | 0.0 | 0.00 | 0.00 | 0.00 | 79 | 1017.2 |
| 20260502113606 | 9 | 0 | 0.0 | 0.0 | 0.00 | 0.00 | 0.00 | 79 | 1017.1 |
| 20260502113056 | 9 | 0 | 0.0 | 0.0 | 0.00 | 0.00 | 0.00 | 79 | 1017.1 |
| 20260502112555 | 9 | 0 | 0.0 | 0.0 | 0.00 | 0.00 | 0.00 | 79 | 1017.0 |
| 20260502112055 | 9 | 0 | 0.0 | 0.0 | 0.00 | 0.00 | 0.00 | 80 | 1016.9 |
| 20260502111556 | 9 | 0 | 0.0 | 0.0 | 0.00 | 0.00 | 0.00 | 80 | 1016.8 |
| 20260502111056 | 9 | 0 | 0.0 | 0.0 | 0.00 | 0.00 | 0.00 | 80 | 1016.9 |
| 20260502110552 | 9 | 0 | 0.0 | 0.0 | 0.00 | 0.00 | 0.00 | 79 | 1016.7 |
| 20260502110057 | 9 | 0 | 0.0 | 0.0 | 0.00 | 0.00 | 0.00 | 78 | 1016.6 |
| 20260502105555 | 10 | 0 | 0.0 | 0.0 | 0.00 | 0.00 | 0.00 | 77 | 1016.6 |
| 20260502105055 | 10 | 0 | 0.0 | 0.0 | 0.00 | 0.00 | 0.00 | 77 | 1016.6 |
| 20260502104555 | 10 | 0 | 0.0 | 0.0 | 0.00 | 0.00 | 0.00 | 76 | 1016.5 |
| 20260502104056 | 10 | 0 | 0.0 | 0.0 | 0.00 | 0.00 | 0.00 | 76 | 1016.3 |
| 20260502103556 | 10 | 0 | 0.0 | 0.0 | 0.00 | 0.00 | 0.00 | 76 | 1016.1 |
| 20260502103054 | 10 | 0 | 0.0 | 0.0 | 0.00 | 0.00 | 0.00 | 76 | 1015.9 |
| 20260502102555 | 10 | 0 | 0.0 | 0.0 | 0.00 | 0.00 | 0.00 | 76 | 1016.1 |
| 20260502102055 | 10 | 0 | 0.0 | 0.0 | 0.00 | 0.00 | 0.00 | 76 | 1016.0 |
| 20260502101556 | 10 | 0 | 0.0 | 0.0 | 0.00 | 0.00 | 0.00 | 76 | 1015.9 |
| 20260502101055 | 10 | 0 | 0.0 | 0.0 | 0.00 | 0.00 | 0.00 | 76 | 1015.8 |
| 20260502100556 | 10 | 0 | 0.0 | 0.0 | 0.00 | 0.00 | 0.00 | 76 | 1015.8 |
| 20260502091054 | 11 | 341 | 4.8 | 6.4 | 0.00 | 0.00 | 0.00 | 74 | 1015.8 |
| 20260502090554 | 11 | 340 | 4.8 | 6.4 | 0.00 | 0.00 | 0.00 | 74 | 1015.8 |
| 20260502080106 | 12 | 0 | 0.0 | 0.0 | 0.00 | 0.00 | 0.00 | 72 | 1015.4 |
| 20260502071052 | 12 | 0 | 0.0 | 0.0 | 0.00 | 0.00 | 0.00 | 70 | 1015.7 |
| 20260502070552 | 13 | 0 | 0.0 | 0.0 | 0.00 | 0.00 | 0.00 | 68 | 1015.8 |
| 20260502070055 | 13 | 0 | 0.0 | 0.0 | 0.00 | 0.00 | 0.00 | 67 | 1015.7 |
| 20260502065552 | 13 | 0 | 0.0 | 9.7 | 0.00 | 0.00 | 0.00 | 65 | 1015.7 |
| 20260502065054 | 13 | 0 | 0.0 | 9.7 | 0.00 | 0.00 | 0.00 | 63 | 1015.7 |
| 20260502064559 | 13 | 0 | 6.4 | 9.7 | 0.00 | 0.00 | 0.00 | 61 | 1015.8 |
| 20260502064055 | 13 | 9 | 0.0 | 0.0 | 0.00 | 0.00 | 0.00 | 61 | 1015.9 |
| 20260502063555 | 13 | 0 | 0.0 | 3.2 | 0.00 | 0.00 | 0.00 | 60 | 1016.1 |
| 20260502063120 | 13 | 0 | 0.0 | 3.2 | 0.00 | 0.00 | 0.00 | 59 | 1016.1 |
| 20260502062554 | 13 | 0 | 0.0 | 0.0 | 0.00 | 0.00 | 0.00 | 59 | 1016.0 |
| 20260502062055 | 13 | 0 | 0.0 | 0.0 | 0.00 | 0.00 | 0.00 | 59 | 1016.1 |
| 20260502061558 | 13 | 0 | 0.0 | 0.0 | 0.00 | 0.00 | 0.00 | 58 | 1015.9 |
| 20260502061051 | 13 | 0 | 0.0 | 0.0 | 0.00 | 0.00 | 0.00 | 58 | 1016.0 |
| 20260502060555 | 13 | 0 | 0.0 | 0.0 | 0.00 | 0.00 | 0.00 | 58 | 1016.0 |
| 20260502060058 | 13 | 0 | 0.0 | 6.4 | 0.00 | 0.00 | 0.00 | 58 | 1016.1 |
| 20260502055556 | 13 | 0 | 0.0 | 6.4 | 0.00 | 0.00 | 0.00 | 58 | 1016.0 |
| 20260502055056 | 13 | 0 | 0.0 | 6.4 | 0.00 | 0.00 | 0.00 | 58 | 1016.0 |
| 20260502054608 | 13 | 0 | 0.0 | 0.0 | 0.00 | 0.00 | 0.00 | 58 | 1016.1 |
| 20260502054052 | 14 | 0 | 0.0 | 0.0 | 0.00 | 0.00 | 0.00 | 59 | 1016.2 |
| 20260502053555 | 14 | 0 | 0.0 | 0.0 | 0.00 | 0.00 | 0.00 | 58 | 1016.4 |
| 20260502053103 | 14 | 0 | 0.0 | 0.0 | 0.00 | 0.00 | 0.00 | 58 | 1015.9 |
| 20260502052555 | 14 | 0 | 0.0 | 0.0 | 0.00 | 0.00 | 0.00 | 58 | 1016.1 |
| 20260502052101 | 14 | 0 | 0.0 | 0.0 | 0.00 | 0.00 | 0.00 | 58 | 1016.3 |
| 20260502051558 | 14 | 0 | 0.0 | 0.0 | 0.00 | 0.00 | 0.00 | 58 | 1016.4 |
| 20260502051054 | 14 | 0 | 0.0 | 6.4 | 0.00 | 0.00 | 0.00 | 58 | 1016.3 |
| 20260502050625 | 14 | 0 | 0.0 | 9.7 | 0.00 | 0.00 | 0.00 | 58 | 1016.2 |
| 20260502050054 | 14 | 0 | 0.0 | 9.7 | 0.00 | 0.00 | 0.00 | 58 | 1016.2 |
| 20260502045556 | 14 | 0 | 0.0 | 11.3 | 0.00 | 0.00 | 0.00 | 58 | 1016.1 |
| 20260502045054 | 14 | 0 | 0.0 | 11.3 | 0.00 | 0.00 | 0.00 | 58 | 1016.0 |
| 20260502044555 | 14 | 0 | 0.0 | 14.5 | 0.00 | 0.00 | 0.00 | 58 | 1016.0 |
| 20260502044057 | 14 | 0 | 1.6 | 14.5 | 0.00 | 0.00 | 0.00 | 58 | 1015.9 |
| 20260502043555 | 14 | 46 | 1.6 | 14.5 | 0.00 | 0.00 | 0.00 | 58 | 1015.9 |
| 20260502043059 | 14 | 358 | 1.6 | 12.9 | 0.00 | 0.00 | 0.00 | 58 | 1015.9 |
| 20260502042554 | 14 | 343 | 0.0 | 16.1 | 0.00 | 0.00 | 0.00 | 58 | 1015.9 |
| 20260502042054 | 14 | 13 | 1.6 | 17.7 | 0.00 | 0.00 | 0.00 | 58 | 1015.9 |
| 20260502041557 | 14 | 13 | 8.0 | 17.7 | 0.00 | 0.00 | 0.00 | 58 | 1015.8 |
| 20260502041055 | 14 | 18 | 4.8 | 16.1 | 0.00 | 0.00 | 0.00 | 58 | 1015.8 |
| 20260502040555 | 14 | 338 | 1.6 | 17.7 | 0.00 | 0.00 | 0.00 | 58 | 1015.7 |
| 20260502040101 | 14 | 5 | 6.4 | 17.7 | 0.00 | 0.00 | 0.00 | 59 | 1015.8 |
| 20260502035556 | 14 | 22 | 0.0 | 17.7 | 0.00 | 0.00 | 0.00 | 59 | 1015.7 |
| 20260502035052 | 14 | 4 | 4.8 | 17.7 | 0.00 | 0.00 | 0.00 | 59 | 1015.7 |
| 20260502034558 | 14 | 339 | 3.2 | 14.5 | 0.00 | 0.00 | 0.00 | 60 | 1015.6 |
| 20260502034056 | 14 | 0 | 6.4 | 14.5 | 0.00 | 0.00 | 0.00 | 61 | 1015.5 |
| 20260502033555 | 14 | 4 | 0.0 | 14.5 | 0.00 | 0.00 | 0.00 | 61 | 1015.7 |
| 20260502033055 | 14 | 0 | 6.4 | 12.9 | 0.00 | 0.00 | 0.00 | 62 | 1015.7 |
| 20260502032554 | 14 | 336 | 3.2 | 12.9 | 0.00 | 0.00 | 0.00 | 63 | 1015.6 |
| 20260502032054 | 14 | 322 | 4.8 | 12.9 | 0.00 | 0.00 | 0.00 | 63 | 1015.6 |
| 20260502031552 | 14 | 0 | 4.8 | 12.9 | 0.00 | 0.00 | 0.00 | 63 | 1015.5 |
| 20260502031055 | 13 | 321 | 3.2 | 12.9 | 0.00 | 0.00 | 0.00 | 64 | 1015.5 |
| 20260502030552 | 13 | 0 | 0.0 | 12.9 | 0.00 | 0.00 | 0.00 | 64 | 1015.3 |
| 20260502030056 | 14 | 358 | 6.4 | 12.9 | 0.00 | 0.00 | 0.00 | 65 | 1015.2 |
| 20260502025556 | 14 | 334 | 3.2 | 16.1 | 0.00 | 0.00 | 0.00 | 65 | 1015.1 |
| 20260502025058 | 14 | 0 | 6.4 | 16.1 | 0.00 | 0.00 | 0.00 | 64 | 1015.2 |
| 20260502024606 | 14 | 0 | 0.0 | 11.3 | 0.00 | 0.00 | 0.00 | 64 | 1015.4 |
| 20260502024052 | 14 | 342 | 1.6 | 12.9 | 0.00 | 0.00 | 0.00 | 63 | 1015.5 |
| 20260502023556 | 14 | 0 | 4.8 | 12.9 | 0.00 | 0.00 | 0.00 | 62 | 1015.5 |
| 20260502023054 | 14 | 10 | 3.2 | 12.9 | 0.00 | 0.00 | 0.00 | 63 | 1015.2 |
| 20260502022556 | 14 | 0 | 0.0 | 11.3 | 0.00 | 0.00 | 0.00 | 64 | 1015.4 |
| 20260502022054 | 14 | 0 | 1.6 | 11.3 | 0.00 | 0.00 | 0.00 | 63 | 1015.4 |
| 20260502021558 | 14 | 323 | 3.2 | 11.3 | 0.00 | 0.00 | 0.00 | 63 | 1015.4 |
| 20260502021056 | 14 | 323 | 1.6 | 12.9 | 0.00 | 0.00 | 0.00 | 63 | 1015.3 |
| 20260502020552 | 14 | 0 | 6.4 | 12.9 | 0.00 | 0.00 | 0.00 | 64 | 1015.1 |
| 20260502020052 | 14 | 0 | 3.2 | 12.9 | 0.00 | 0.00 | 0.00 | 66 | 1015.1 |
| 20260502015555 | 14 | 0 | 1.6 | 12.9 | 0.00 | 0.00 | 0.00 | 69 | 1014.9 |
| 20260502015055 | 14 | 337 | 1.6 | 12.9 | 0.00 | 0.00 | 0.00 | 68 | 1014.9 |
| 20260502014553 | 15 | 0 | 1.6 | 14.5 | 0.00 | 0.00 | 0.00 | 66 | 1014.9 |
| 20260502014055 | 15 | 0 | 1.6 | 17.7 | 0.00 | 0.00 | 0.00 | 63 | 1015.0 |
| 20260502013555 | 15 | 335 | 8.0 | 19.3 | 0.00 | 0.00 | 0.00 | 62 | 1015.2 |
| 20260502013056 | 15 | 332 | 11.3 | 19.3 | 0.00 | 0.00 | 0.00 | 63 | 1015.5 |
| 20260502012553 | 15 | 335 | 6.4 | 19.3 | 0.00 | 0.00 | 0.00 | 64 | 1015.5 |
| 20260502012056 | 15 | 330 | 0.0 | 9.7 | 0.00 | 0.00 | 0.00 | 64 | 1015.4 |
| 20260502011553 | 15 | 333 | 0.0 | 12.9 | 0.00 | 0.00 | 0.00 | 64 | 1015.4 |
| 20260502011052 | 15 | 0 | 4.8 | 14.5 | 0.00 | 0.00 | 0.00 | 61 | 1015.4 |
| 20260502010554 | 15 | 329 | 1.6 | 14.5 | 0.00 | 0.00 | 0.00 | 59 | 1015.5 |
| 20260502010055 | 15 | 0 | 8.0 | 14.5 | 0.00 | 0.00 | 0.00 | 59 | 1015.6 |
| 20260502005555 | 15 | 0 | 3.2 | 14.5 | 0.00 | 0.00 | 0.00 | 59 | 1015.5 |
| 20260502005055 | 15 | 333 | 1.6 | 16.1 | 0.00 | 0.00 | 0.00 | 59 | 1015.7 |
| 20260502004554 | 15 | 326 | 3.2 | 16.1 | 0.00 | 0.00 | 0.00 | 59 | 1015.4 |
| 20260502004051 | 16 | 0 | 4.8 | 17.7 | 0.00 | 0.00 | 0.00 | 59 | 1015.5 |
| 20260502003554 | 16 | 342 | 8.0 | 19.3 | 0.00 | 0.00 | 0.00 | 58 | 1015.2 |
| 20260502003056 | 16 | 328 | 8.0 | 19.3 | 0.00 | 0.00 | 0.00 | 58 | 1015.0 |
| 20260502002557 | 16 | 19 | 9.7 | 16.1 | 0.00 | 0.00 | 0.00 | 59 | 1014.7 |
| 20260502002052 | 16 | 326 | 6.4 | 12.9 | 0.00 | 0.00 | 0.00 | 60 | 1014.6 |
| 20260502001556 | 16 | 338 | 6.4 | 12.9 | 0.00 | 0.00 | 0.00 | 58 | 1014.4 |
| 20260502001055 | 16 | 330 | 3.2 | 16.1 | 0.00 | 0.00 | 0.00 | 59 | 1014.3 |
| 20260502000556 | 16 | 0 | 1.6 | 16.1 | 0.00 | 0.00 | 0.00 | 61 | 1014.4 |
| 20260501235551 | 16 | 11 | 8.0 | 14.5 | 0.00 | 0.00 | 0.00 | 60 | 1014.1 |
| 20260501235054 | 16 | 0 | 0.0 | 14.5 | 0.00 | 0.00 | 0.00 | 61 | 1014.1 |
| 20260501234558 | 16 | 0 | 8.0 | 14.5 | 0.00 | 0.00 | 0.00 | 60 | 1014.1 |
| 20260501234056 | 16 | 354 | 4.8 | 16.1 | 0.00 | 0.00 | 0.00 | 60 | 1014.1 |
| 20260501233555 | 16 | 7 | 4.8 | 16.1 | 0.00 | 0.00 | 0.00 | 60 | 1014.1 |
| 20260501233058 | 16 | 342 | 6.4 | 14.5 | 0.00 | 0.00 | 0.00 | 60 | 1014.2 |
| 20260501232552 | 16 | 0 | 0.0 | 17.7 | 0.00 | 0.00 | 0.00 | 59 | 1014.2 |
| 20260501232051 | 16 | 333 | 6.4 | 17.7 | 0.00 | 0.00 | 0.00 | 58 | 1014.1 |
| 20260501231631 | 17 | 355 | 6.4 | 17.7 | 0.00 | 0.00 | 0.00 | 58 | 1014.1 |
| 20260501231053 | 17 | 340 | 8.0 | 20.9 | 0.00 | 0.00 | 0.00 | 58 | 1014.3 |
| 20260501230554 | 17 | 2 | 3.2 | 20.9 | 0.00 | 0.00 | 0.00 | 57 | 1014.1 |
| 20260501230059 | 17 | 345 | 1.6 | 22.5 | 0.00 | 0.00 | 0.00 | 57 | 1013.9 |
| 20260501225554 | 17 | 17 | 9.7 | 22.5 | 0.00 | 0.00 | 0.00 | 56 | 1013.8 |
| 20260501225054 | 17 | 31 | 12.9 | 22.5 | 0.00 | 0.00 | 0.00 | 55 | 1013.5 |
| 20260501224611 | 17 | 352 | 8.0 | 22.5 | 0.00 | 0.00 | 0.00 | 55 | 1013.8 |
| 20260501224055 | 17 | 10 | 6.4 | 19.3 | 0.00 | 0.00 | 0.00 | 54 | 1013.9 |